Back to catalog

COSMOS 839 DEB

AliveUNKNOWN
NORAD 10445·DEBRIS·🇷🇺 Russia

Launched Jul 8, 1976 from Plesetsk Cosmodrome

Loading…

Next Passes (next 24 hours)

TLE

FreshSource: Space-Track

Epoch: Sep 13, 2026, 10:15 UTC

1 10445U 76067W   26256.42764527 -.00000265  00000-0 -12080-2 0  9996
2 10445  65.9307  46.5263 0662966 294.6930  87.6824 12.09326574214775

Track COSMOS 839 DEB in real time with AllMySat

Download on the App Store